Nantucket, MA

1:37 AM EST on January 20, 2017 (GMT -0500)
Nantucket Memorial

Weather History for KACK - November, 2010

Change the Weather History Date:

Monday, November 15, 2010

  Actual Average Record
Temperature  
Mean Temperature 52 °F -  
Max Temperature 57 °F 50 °F 61 °F (2011)
Min Temperature 46 °F 35 °F 21 °F (1976)
Degree Days  
Heating Degree Days 14    
Growing Degree Days 2 (Base 50)    
Moisture  
Dew Point 50 °F    
Average Humidity 92    
Maximum Humidity 100    
Minimum Humidity 78    
Precipitation  
Precipitation 0.11 in - - ()
Sea Level Pressure  
Sea Level Pressure 30.04 in    
Wind  
Wind Speed 7 mph (East)    
Max Wind Speed 17 mph    
Max Gust Speed 20 mph    
Visibility 6 miles    
Events Fog , Rain    
Averages and records for this station are not official NWS values.
T = Trace of Precipitation, MM = Missing Value Source: NWS Daily Summary

Daily Weather History Graph

Daily Weather History Graph

Search for Another Location

Airport or City:

Trip Planner

Search our weather history database for the weather conditions in past years. The results will help you decide how hot, cold, wet, or windy it might be!

Date:

Astronomy

Nov. 15, 2010 Rise Set
Actual Time 6:28 AM EST 4:20 PM EST
Civil Twilight 5:58 AM EST 4:50 PM EST
Nautical Twilight 5:25 AM EST 5:23 PM EST
Astronomical Twilight 4:52 AM EST 5:56 PM EST
Moon 1:05 PM EST (11/15) 12:27 AM EST (11/15)
Length of Visible Light 10h 52m
Length of Day
9h 52m
Waxing Gibbous, 69% of the Moon is Illuminated
Nov 15
Waxing Gibbous
Nov 21
Full
Nov 28
Last Quarter
Dec 5
New
Dec 13
First Quarter

Hourly Weather History & Observations

Time (EST) Temp. Windchill Dew Point Humidity Pressure Visibility Wind Dir Wind Speed Gust Speed Precip Events Conditions
12:49 AM 48.2 °F - 44.6 °F 87% 30.07 in 10.0 mi East 6.9 mph - N/A   Mostly Cloudy
12:53 AM 48.9 °F - 45.0 °F 86% 30.07 in 10.0 mi East 5.8 mph - N/A   Scattered Clouds
1:15 AM 48.2 °F - 44.6 °F 87% 30.07 in 10.0 mi ENE 4.6 mph - N/A   Mostly Cloudy
1:23 AM 48.2 °F - 44.6 °F 87% 30.07 in 10.0 mi ENE 4.6 mph - N/A   Scattered Clouds
1:30 AM 46.4 °F 44.3 °F 44.6 °F 93% 30.08 in 10.0 mi ENE 4.6 mph - N/A   Mostly Cloudy
1:53 AM 48.0 °F - 45.0 °F 89% 30.08 in 10.0 mi ENE 4.6 mph - N/A   Mostly Cloudy
2:26 AM 48.2 °F - 44.6 °F 87% 30.07 in 10.0 mi ENE 5.8 mph - N/A   Scattered Clouds
2:40 AM 48.2 °F - 46.4 °F 93% 30.07 in 10.0 mi ENE 5.8 mph - N/A   Mostly Cloudy
2:53 AM 48.9 °F - 46.0 °F 90% 30.07 in 10.0 mi ENE 5.8 mph - N/A   Mostly Cloudy
3:02 AM 48.2 °F - 46.4 °F 93% 30.07 in 10.0 mi ENE 5.8 mph - N/A   Mostly Cloudy
3:53 AM 48.0 °F - 46.0 °F 93% 30.06 in 9.0 mi East 5.8 mph - N/A   Scattered Clouds
4:53 AM 48.9 °F - 46.9 °F 93% 30.06 in 9.0 mi East 8.1 mph - N/A   Clear
5:53 AM 48.9 °F - 46.9 °F 93% 30.06 in 9.0 mi East 8.1 mph - N/A   Partly Cloudy
6:53 AM 50.0 °F - 48.0 °F 93% 30.07 in 8.0 mi East 8.1 mph - N/A   Mostly Cloudy
7:53 AM 52.0 °F - 50.0 °F 93% 30.08 in 8.0 mi East 8.1 mph - N/A   Overcast
8:53 AM 54.0 °F - 51.1 °F 90% 30.07 in 10.0 mi East 13.8 mph - N/A   Mostly Cloudy
9:53 AM 55.0 °F - 50.0 °F 83% 30.08 in 10.0 mi East 15.0 mph 19.6 mph N/A   Mostly Cloudy
10:53 AM 57.0 °F - 51.1 °F 81% 30.06 in 10.0 mi East 13.8 mph - N/A   Partly Cloudy
11:53 AM 57.0 °F - 51.1 °F 81% 30.03 in 10.0 mi ESE 15.0 mph - N/A   Scattered Clouds
12:53 PM 57.9 °F - 51.1 °F 78% 30.02 in 10.0 mi East 17.3 mph - N/A   Mostly Cloudy
1:53 PM 57.0 °F - 51.1 °F 81% 30.01 in 10.0 mi ESE 11.5 mph - N/A   Mostly Cloudy
2:53 PM 55.0 °F - 51.1 °F 86% 30.02 in 10.0 mi ESE 10.4 mph - N/A   Overcast
3:53 PM 54.0 °F - 51.1 °F 90% 30.01 in 10.0 mi East 9.2 mph - N/A   Mostly Cloudy
4:53 PM 54.0 °F - 51.1 °F 90% 30.01 in 10.0 mi East 10.4 mph - N/A   Mostly Cloudy
5:02 PM 53.6 °F - 51.8 °F 94% 30.01 in 10.0 mi ESE 9.2 mph - N/A   Mostly Cloudy
5:53 PM 53.1 °F - 51.1 °F 93% 30.01 in 9.0 mi ESE 8.1 mph - N/A   Scattered Clouds
6:45 PM 53.6 °F - 51.8 °F 94% 30.02 in 4.0 mi SSE 5.8 mph - 0.01 in Rain Light Rain
6:53 PM 53.1 °F - 52.0 °F 96% 30.03 in 3.0 mi South 5.8 mph - 0.03 in Rain Rain
6:59 PM 53.6 °F - 51.8 °F 94% 30.03 in 2.5 mi SSE 4.6 mph - 0.04 in Rain Heavy Rain
7:00 PM 53.6 °F - 51.8 °F 94% 30.03 in 3.0 mi SSE 5.8 mph - 0.06 in Rain Heavy Rain
7:53 PM 53.1 °F - 52.0 °F 96% 30.03 in 5.0 mi Calm Calm - 0.08 in   Overcast
8:17 PM 53.6 °F - 51.8 °F 94% 30.03 in 4.0 mi Calm Calm - N/A   Overcast
8:35 PM 51.8 °F - 51.8 °F 100% 30.03 in 0.8 mi Calm Calm - N/A   Overcast
8:53 PM 51.1 °F - 51.1 °F 100% 30.02 in 0.2 mi Calm Calm - N/A Fog Fog
9:05 PM 51.8 °F - 51.8 °F 100% 30.02 in 0.5 mi Calm Calm - N/A Fog Fog
9:27 PM 53.6 °F - 51.8 °F 94% 30.02 in 0.5 mi Calm Calm - N/A Fog Fog
9:35 PM 53.6 °F - 51.8 °F 94% 30.02 in 0.2 mi Calm Calm - N/A Fog Fog
9:53 PM 53.1 °F - 52.0 °F 96% 30.02 in 0.2 mi West 5.8 mph - N/A Fog Fog
10:00 PM 53.6 °F - 51.8 °F 94% 30.02 in 0.2 mi WSW 5.8 mph - N/A Fog Fog
10:10 PM 53.6 °F - 53.6 °F 100% 30.02 in 0.2 mi West 5.8 mph - N/A Fog Fog
10:53 PM 53.1 °F - 53.1 °F 100% 30.02 in 0.2 mi West 4.6 mph - N/A Fog Fog
11:47 PM 51.8 °F - 51.8 °F 100% 30.03 in 0.5 mi West 5.8 mph - N/A Fog Fog
11:53 PM 52.0 °F - 52.0 °F 100% 30.02 in 0.5 mi West 8.1 mph - N/A Fog Fog